This demonstration page uses our WeatherBlox Daily Observations layout. Learn more.

Left ArrowRight Arrow

38.88101, -77.10428

Hourly Observations for July 15, 2021

Temp ( °F °C ) Dew Point ( °F °C ) Humidity (%) Winds ( mph kmh ) Pressure ( in mb ) Visibility ( mi km ) Precip ( " mm )
12:52 am 00:52 Mostly Cloudy 74 23.3 70 21.1 88 88 SSW 6 9 30.15 1021 10 16 N/A
1:52 am 01:52 Mostly Cloudy 73 22.8 69 20.6 87 87 SW 7 11 30.14 1021 10 16 N/A
2:52 am 02:52 Partly Cloudy 73 22.8 69 20.6 87 87 SW 6 9 30.13 1020 10 16 N/A
3:52 am 03:52 Mostly Clear 73 22.8 68 20 84 84 N N/A 30.13 1020 10 16 N/A
4:52 am 04:52 Mostly Clear 73 22.8 69 20.6 87 87 SSW 5 7 30.13 1020 10 16 N/A
5:52 am 05:52 Mostly Clear 72 22.2 68 20 87 87 SW 5 7 30.14 1021 10 16 N/A
6:52 am 06:52 Mostly Cloudy 73 22.8 69 20.6 87 87 S 3 6 30.15 1021 10 16 N/A
7:52 am 07:52 Mostly Cloudy 76 24.4 70 21.1 82 82 S 3 6 30.15 1021 10 16 N/A
8:52 am 08:52 Mostly Cloudy 78 25.6 70 21.1 76 76 SE 3 6 30.14 1021 10 16 N/A
9:52 am 09:52 Mostly Cloudy 82 27.8 71 21.7 69 69 SE 5 7 30.13 1020 10 16 N/A
10:52 am 10:52 Cloudy 84 28.9 72 22.2 67 67 ESE 3 6 30.13 1020 10 16 N/A
11:52 am 11:52 Cloudy 90 32.2 69 20.6 50 50 VRB 3 6 30.12 1020 10 16 N/A
12:52 pm 12:52 Mostly Cloudy 90 32.2 68 20 48 48 E 5 7 30.11 1020 10 16 N/A
1:52 pm 13:52 Mostly Cloudy 89 31.7 68 20 50 50 SE 5 7 30.09 1019 10 16 N/A
2:52 pm 14:52 Mostly Cloudy 90 32.2 72 22.2 56 56 S 9 15 30.08 1019 10 16 N/A
3:52 pm 15:52 Mostly Cloudy 90 32.2 72 22.2 56 56 SSE 10 17 30.06 1018 10 16 N/A
4:52 pm 16:52 Partly Cloudy 89 31.7 70 21.1 53 53 SSE 13 20 30.05 1018 10 16 N/A
5:52 pm 17:52 Partly Cloudy 90 32.2 70 21.1 52 52 S 14 22 30.02 1017 10 16 N/A
6:52 pm 18:52 Partly Cloudy 89 31.7 69 20.6 52 52 SW 10 17 30.01 1016 10 16 N/A
7:52 pm 19:52 Partly Cloudy 87 30.6 70 21.1 57 57 S 9 15 30.03 1017 10 16 N/A
8:52 pm 20:52 Mostly Cloudy 85 29.4 71 21.7 63 63 SSW 9 15 30.02 1017 10 16 N/A
9:52 pm 21:52 Mostly Cloudy 85 29.4 70 21.1 61 61 SSW 6 9 30.03 1017 10 16 N/A
10:52 pm 22:52 Cloudy 84 28.9 68 20 59 59 SSW 7 11 30.04 1017 10 16 N/A
11:52 pm 23:52 Cloudy 83 28.3 67 19.4 59 59 SW 5 7 30.04 1017 10 16 N/A

Powered by AerisWeather